Time,TemperatureF,DewpointF,PressureIn,WindDirection,WindDirectionDegrees,WindSpeedMPH,WindSpeedGustMPH,Humidity,HourlyPrecipIn,Conditions,Clouds,dailyrainin,SoftwareType,DateUTC
2013-05-13 00:02:00,40.0,31.0,30.11,WNW,282,0.0,-999.0,69,-99.99,,,-99.99,,2013-05-13 05:02:00,
2013-05-13 00:12:00,40.0,31.0,30.11,WNW,282,0.0,-999.0,69,-99.99,,,-99.99,,2013-05-13 05:12:00,
2013-05-13 00:21:00,39.0,30.0,30.12,WNW,282,0.0,-999.0,69,-99.99,,,-99.99,,2013-05-13 05:21:00,
2013-05-13 00:32:00,40.0,30.0,30.12,WNW,282,0.0,-999.0,68,-99.99,,,-99.99,,2013-05-13 05:32:00,
2013-05-13 00:42:00,40.0,30.0,30.12,WNW,282,0.0,-999.0,68,-99.99,,,-99.99,,2013-05-13 05:42:00,
2013-05-13 00:52:00,41.0,30.0,30.12,WNW,282,0.0,-999.0,65,-99.99,,,-99.99,,2013-05-13 05:52:00,
2013-05-13 01:01:00,41.0,30.0,30.12,WNW,282,0.0,-999.0,64,-99.99,,,-99.99,,2013-05-13 06:01:00,
2013-05-13 01:11:00,41.0,30.0,30.12,WNW,282,0.0,-999.0,64,-99.99,,,-99.99,,2013-05-13 06:11:00,
2013-05-13 01:21:00,41.0,30.0,30.12,WNW,282,0.0,-999.0,65,-99.99,,,-99.99,,2013-05-13 06:21:00,
2013-05-13 01:31:00,40.0,30.0,30.12,WNW,282,0.0,-999.0,68,-99.99,,,-99.99,,2013-05-13 06:31:00,
2013-05-13 01:42:00,40.0,30.0,30.12,WNW,282,0.0,-999.0,68,-99.99,,,-99.99,,2013-05-13 06:42:00,
2013-05-13 01:52:00,39.0,30.0,30.12,WNW,282,0.0,-999.0,69,-99.99,,,-99.99,,2013-05-13 06:52:00,
2013-05-13 02:01:00,39.0,31.0,30.12,WNW,282,0.0,-999.0,72,-99.99,,,-99.99,,2013-05-13 07:01:00,
2013-05-13 02:11:00,39.0,31.0,30.12,WNW,282,0.0,-999.0,72,-99.99,,,-99.99,,2013-05-13 07:11:00,
2013-05-13 02:22:00,38.0,31.0,30.12,WNW,282,0.0,-999.0,77,-99.99,,,-99.99,,2013-05-13 07:22:00,
2013-05-13 02:31:00,37.0,31.0,30.12,WNW,282,0.0,-999.0,80,-99.99,,,-99.99,,2013-05-13 07:31:00,
2013-05-13 02:41:00,37.0,31.0,30.12,WNW,282,0.0,-999.0,80,-99.99,,,-99.99,,2013-05-13 07:41:00,
2013-05-13 02:52:00,36.0,31.0,30.12,WNW,282,0.0,-999.0,81,-99.99,,,-99.99,,2013-05-13 07:52:00,
2013-05-13 03:02:00,36.0,31.0,30.13,WNW,282,0.0,-999.0,82,-99.99,,,-99.99,,2013-05-13 08:02:00,
2013-05-13 03:11:00,36.0,31.0,30.13,WNW,282,0.0,-999.0,82,-99.99,,,-99.99,,2013-05-13 08:11:00,
2013-05-13 03:21:00,36.0,31.0,30.13,WNW,282,0.0,-999.0,82,-99.99,,,-99.99,,2013-05-13 08:21:00,
2013-05-13 03:31:00,36.0,32.0,30.12,WNW,282,0.0,-999.0,84,-99.99,,,-99.99,,2013-05-13 08:31:00,
2013-05-13 03:42:00,36.0,32.0,30.12,WNW,282,0.0,-999.0,84,-99.99,,,-99.99,,2013-05-13 08:42:00,
2013-05-13 03:51:00,36.0,31.0,30.12,WNW,282,0.0,-999.0,83,-99.99,,,-99.99,,2013-05-13 08:51:00,
2013-05-13 04:01:00,36.0,32.0,30.12,WNW,282,0.0,-999.0,84,-99.99,,,-99.99,,2013-05-13 09:01:00,
2013-05-13 04:11:00,36.0,32.0,30.12,WNW,282,0.0,-999.0,84,-99.99,,,-99.99,,2013-05-13 09:11:00,
2013-05-13 04:21:00,36.0,32.0,30.12,WNW,282,0.0,-999.0,84,-99.99,,,-99.99,,2013-05-13 09:21:00,
2013-05-13 04:33:00,35.0,31.0,30.12,WNW,282,0.0,-999.0,84,-99.99,,,-99.99,,2013-05-13 09:33:00,
2013-05-13 04:42:00,35.0,31.0,30.12,WNW,282,0.0,-999.0,84,-99.99,,,-99.99,,2013-05-13 09:42:00,
2013-05-13 04:52:00,35.0,30.0,30.12,WNW,282,0.0,-999.0,83,-99.99,,,-99.99,,2013-05-13 09:52:00,
2013-05-13 05:03:00,35.0,31.0,30.12,WNW,282,0.0,-999.0,86,-99.99,,,-99.99,,2013-05-13 10:03:00,
2013-05-13 05:12:00,35.0,31.0,30.12,WNW,282,0.0,-999.0,86,-99.99,,,-99.99,,2013-05-13 10:12:00,
2013-05-13 05:22:00,35.0,32.0,30.13,WNW,282,0.0,-999.0,88,-99.99,,,-99.99,,2013-05-13 10:22:00,
2013-05-13 05:32:00,34.0,31.0,30.13,WNW,282,0.0,-999.0,89,-99.99,,,-99.99,,2013-05-13 10:32:00,
2013-05-13 05:42:00,34.0,31.0,30.13,WNW,282,0.0,-999.0,89,-99.99,,,-99.99,,2013-05-13 10:42:00,
2013-05-13 05:52:00,34.0,31.0,30.13,WNW,282,0.0,-999.0,87,-99.99,,,-99.99,,2013-05-13 10:52:00,
2013-05-13 06:02:00,34.0,31.0,30.13,WNW,282,0.0,-999.0,88,-99.99,,,-99.99,,2013-05-13 11:02:00,
2013-05-13 06:12:00,34.0,31.0,30.13,WNW,282,0.0,-999.0,88,-99.99,,,-99.99,,2013-05-13 11:12:00,
2013-05-13 06:21:00,34.0,31.0,30.14,WNW,282,0.0,-999.0,89,-99.99,,,-99.99,,2013-05-13 11:21:00,
2013-05-13 06:32:00,34.0,31.0,30.14,WNW,282,0.0,-999.0,89,-99.99,,,-99.99,,2013-05-13 11:32:00,
2013-05-13 06:42:00,34.0,31.0,30.14,WNW,282,0.0,-999.0,89,-99.99,,,-99.99,,2013-05-13 11:42:00,
2013-05-13 06:52:00,35.0,31.0,30.15,WNW,282,0.0,-999.0,86,-99.99,,,-99.99,,2013-05-13 11:52:00,
2013-05-13 07:01:00,37.0,32.0,30.15,WNW,282,0.0,-999.0,81,-99.99,,,-99.99,,2013-05-13 12:01:00,
2013-05-13 07:11:00,37.0,32.0,30.15,WNW,282,0.0,-999.0,81,-99.99,,,-99.99,,2013-05-13 12:11:00,
2013-05-13 07:21:00,39.0,33.0,30.16,WNW,282,0.0,-999.0,80,-99.99,,,-99.99,,2013-05-13 12:21:00,
2013-05-13 07:32:00,42.0,34.0,30.16,WNW,282,0.0,-999.0,72,-99.99,,,-99.99,,2013-05-13 12:32:00,
2013-05-13 07:42:00,42.0,34.0,30.16,WNW,282,0.0,-999.0,72,-99.99,,,-99.99,,2013-05-13 12:42:00,
2013-05-13 07:51:00,44.0,33.0,30.16,WNW,282,0.0,-999.0,64,-99.99,,,-99.99,,2013-05-13 12:51:00,
2013-05-13 08:01:00,47.0,33.0,30.17,WNW,282,0.0,-999.0,59,-99.99,,,-99.99,,2013-05-13 13:01:00,
2013-05-13 08:11:00,47.0,33.0,30.17,WNW,282,0.0,-999.0,59,-99.99,,,-99.99,,2013-05-13 13:11:00,
2013-05-13 08:21:00,48.0,33.0,30.17,West,280,1.0,-999.0,56,-99.99,,,-99.99,,2013-05-13 13:21:00,
2013-05-13 08:31:00,50.0,35.0,30.17,West,279,1.0,-999.0,57,-99.99,,,-99.99,,2013-05-13 13:31:00,
2013-05-13 08:41:00,50.0,35.0,30.17,West,279,1.0,-999.0,57,-99.99,,,-99.99,,2013-05-13 13:41:00,
2013-05-13 08:52:00,51.0,34.0,30.18,West,261,2.0,-999.0,53,-99.99,,,-99.99,,2013-05-13 13:52:00,
2013-05-13 09:02:00,53.0,34.0,30.18,West,275,1.0,-999.0,49,-99.99,,,-99.99,,2013-05-13 14:02:00,
2013-05-13 09:11:00,53.0,34.0,30.18,West,275,1.0,-999.0,49,-99.99,,,-99.99,,2013-05-13 14:11:00,
2013-05-13 09:22:00,54.0,33.0,30.18,WNW,289,2.0,-999.0,45,-99.99,,,-99.99,,2013-05-13 14:22:00,
2013-05-13 09:32:00,56.0,30.0,30.18,WNW,285,3.0,-999.0,37,-99.99,,,-99.99,,2013-05-13 14:32:00,
2013-05-13 09:41:00,56.0,30.0,30.18,WNW,285,3.0,-999.0,37,-99.99,,,-99.99,,2013-05-13 14:41:00,
2013-05-13 09:51:00,56.0,29.0,30.18,West,281,2.0,-999.0,35,-99.99,,,-99.99,,2013-05-13 14:51:00,
2013-05-13 10:01:00,57.0,27.0,30.18,SW,225,2.0,-999.0,32,-99.99,,,-99.99,,2013-05-13 15:01:00,
2013-05-13 10:11:00,57.0,27.0,30.18,SW,225,2.0,-999.0,32,-99.99,,,-99.99,,2013-05-13 15:11:00,
2013-05-13 10:21:00,58.0,27.0,30.18,WSW,244,2.0,-999.0,30,-99.99,,,-99.99,,2013-05-13 15:21:00,
2013-05-13 10:31:00,58.0,25.0,30.18,SW,231,2.0,-999.0,28,-99.99,,,-99.99,,2013-05-13 15:31:00,
2013-05-13 10:42:00,58.0,25.0,30.18,SW,231,2.0,-999.0,28,-99.99,,,-99.99,,2013-05-13 15:42:00,
2013-05-13 10:53:00,59.0,28.0,30.18,SW,218,3.0,-999.0,30,-99.99,,,-99.99,,2013-05-13 15:53:00,
2013-05-13 11:03:00,60.0,27.0,30.18,WSW,254,7.0,-999.0,28,-99.99,,,-99.99,,2013-05-13 16:03:00,
2013-05-13 11:11:00,60.0,27.0,30.18,WSW,254,7.0,-999.0,28,-99.99,,,-99.99,,2013-05-13 16:11:00,
2013-05-13 11:21:00,60.0,28.0,30.17,West,270,6.0,-999.0,29,-99.99,,,-99.99,,2013-05-13 16:21:00,
2013-05-13 11:33:00,60.0,27.0,30.17,West,262,6.0,-999.0,28,-99.99,,,-99.99,,2013-05-13 16:33:00,
2013-05-13 11:42:00,61.0,27.0,30.17,WSW,246,6.0,-999.0,27,-99.99,,,-99.99,,2013-05-13 16:42:00,
2013-05-13 11:52:00,61.0,27.0,30.17,WSW,246,6.0,-999.0,27,-99.99,,,-99.99,,2013-05-13 16:52:00,
2013-05-13 12:02:00,62.0,29.0,30.16,WNW,283,6.0,-999.0,28,-99.99,,,-99.99,,2013-05-13 17:02:00,
2013-05-13 12:12:00,62.0,29.0,30.16,WNW,283,6.0,-999.0,28,-99.99,,,-99.99,,2013-05-13 17:12:00,
2013-05-13 12:21:00,62.0,26.0,30.15,WSW,254,7.0,-999.0,25,-99.99,,,-99.99,,2013-05-13 17:21:00,
2013-05-13 12:32:00,62.0,28.0,30.14,West,265,5.0,-999.0,27,-99.99,,,-99.99,,2013-05-13 17:32:00,
2013-05-13 12:42:00,62.0,28.0,30.14,West,265,5.0,-999.0,27,-99.99,,,-99.99,,2013-05-13 17:42:00,
2013-05-13 12:54:00,62.0,30.0,30.14,NW,320,5.0,-999.0,30,-99.99,,,-99.99,,2013-05-13 17:54:00,
2013-05-13 13:03:00,64.0,29.0,30.13,WSW,242,5.0,-999.0,27,-99.99,,,-99.99,,2013-05-13 18:03:00,
2013-05-13 13:12:00,64.0,29.0,30.13,WSW,242,5.0,-999.0,27,-99.99,,,-99.99,,2013-05-13 18:12:00,
2013-05-13 13:23:00,64.0,28.0,30.12,WNW,296,4.0,-999.0,26,-99.99,,,-99.99,,2013-05-13 18:23:00,
2013-05-13 13:32:00,65.0,28.0,30.13,West,279,7.0,-999.0,25,-99.99,,,-99.99,,2013-05-13 18:32:00,
2013-05-13 13:42:00,65.0,29.0,30.12,West,279,8.0,-999.0,26,-99.99,,,-99.99,,2013-05-13 18:42:00,
2013-05-13 13:52:00,65.0,29.0,30.12,West,279,8.0,-999.0,26,-99.99,,,-99.99,,2013-05-13 18:52:00,
2013-05-13 14:01:00,66.0,28.0,30.12,WSW,254,8.0,-999.0,24,-99.99,,,-99.99,,2013-05-13 19:01:00,
2013-05-13 14:11:00,66.0,28.0,30.12,WSW,254,8.0,-999.0,24,-99.99,,,-99.99,,2013-05-13 19:11:00,
2013-05-13 14:21:00,66.0,29.0,30.11,SW,228,6.0,-999.0,25,-99.99,,,-99.99,,2013-05-13 19:21:00,
2013-05-13 14:32:00,66.0,27.0,30.10,WSW,240,5.0,-999.0,23,-99.99,,,-99.99,,2013-05-13 19:32:00,
2013-05-13 14:44:00,67.0,28.0,30.09,SW,233,7.0,-999.0,23,-99.99,,,-99.99,,2013-05-13 19:44:00,
2013-05-13 14:53:00,67.0,28.0,30.09,SW,233,7.0,-999.0,23,-99.99,,,-99.99,,2013-05-13 19:53:00,
2013-05-13 15:01:00,67.0,32.0,30.09,WSW,250,4.0,-999.0,27,-99.99,,,-99.99,,2013-05-13 20:01:00,
2013-05-13 15:11:00,67.0,32.0,30.09,WSW,250,4.0,-999.0,27,-99.99,,,-99.99,,2013-05-13 20:11:00,
2013-05-13 15:23:00,68.0,28.0,30.08,WSW,258,9.0,-999.0,22,-99.99,,,-99.99,,2013-05-13 20:23:00,
2013-05-13 15:33:00,68.0,30.0,30.08,WSW,246,6.0,-999.0,24,-99.99,,,-99.99,,2013-05-13 20:33:00,
2013-05-13 15:44:00,68.0,30.0,30.08,WSW,246,6.0,-999.0,24,-99.99,,,-99.99,,2013-05-13 20:44:00,
2013-05-13 15:53:00,68.0,29.0,30.07,WSW,238,6.0,-999.0,23,-99.99,,,-99.99,,2013-05-13 20:53:00,
2013-05-13 16:03:00,68.0,29.0,30.07,WSW,250,7.0,-999.0,23,-99.99,,,-99.99,,2013-05-13 21:03:00,
2013-05-13 16:14:00,68.0,29.0,30.07,WSW,250,7.0,-999.0,23,-99.99,,,-99.99,,2013-05-13 21:14:00,
2013-05-13 16:23:00,69.0,29.0,30.06,SW,230,4.0,-999.0,22,-99.99,,,-99.99,,2013-05-13 21:23:00,
2013-05-13 16:33:00,68.0,29.0,30.05,WSW,257,5.0,-999.0,23,-99.99,,,-99.99,,2013-05-13 21:33:00,
2013-05-13 16:43:00,68.0,29.0,30.05,WSW,257,5.0,-999.0,23,-99.99,,,-99.99,,2013-05-13 21:43:00,
2013-05-13 16:53:00,69.0,31.0,30.04,SW,232,6.0,-999.0,24,-99.99,,,-99.99,,2013-05-13 21:53:00,
2013-05-13 17:02:00,69.0,29.0,30.04,West,263,8.0,-999.0,22,-99.99,,,-99.99,,2013-05-13 22:02:00,
2013-05-13 17:12:00,69.0,29.0,30.04,West,263,8.0,-999.0,22,-99.99,,,-99.99,,2013-05-13 22:12:00,
2013-05-13 17:23:00,69.0,31.0,30.03,West,269,6.0,-999.0,24,-99.99,,,-99.99,,2013-05-13 22:23:00,
2013-05-13 17:32:00,69.0,30.0,30.03,WNW,282,7.0,-999.0,23,-99.99,,,-99.99,,2013-05-13 22:32:00,
2013-05-13 17:42:00,70.0,33.0,30.03,SW,226,3.0,-999.0,25,-99.99,,,-99.99,,2013-05-13 22:42:00,
2013-05-13 17:52:00,70.0,33.0,30.03,SW,226,3.0,-999.0,25,-99.99,,,-99.99,,2013-05-13 22:52:00,
2013-05-13 18:02:00,68.0,32.0,30.03,SW,216,5.0,-999.0,26,-99.99,,,-99.99,,2013-05-13 23:02:00,
2013-05-13 18:12:00,68.0,32.0,30.03,SW,216,5.0,-999.0,26,-99.99,,,-99.99,,2013-05-13 23:12:00,
2013-05-13 18:23:00,68.0,33.0,30.03,SW,227,4.0,-999.0,27,-99.99,,,-99.99,,2013-05-13 23:23:00,
2013-05-13 18:33:00,68.0,32.0,30.03,SW,234,4.0,-999.0,26,-99.99,,,-99.99,,2013-05-13 23:33:00,
2013-05-13 18:42:00,68.0,32.0,30.03,SW,234,4.0,-999.0,26,-99.99,,,-99.99,,2013-05-13 23:42:00,
2013-05-13 18:54:00,68.0,33.0,30.02,SW,230,6.0,-999.0,27,-99.99,,,-99.99,,2013-05-13 23:54:00,
2013-05-13 19:02:00,67.0,33.0,30.01,SW,230,2.0,-999.0,28,-99.99,,,-99.99,,2013-05-14 00:02:00,
2013-05-13 19:12:00,67.0,33.0,30.01,SW,230,2.0,-999.0,28,-99.99,,,-99.99,,2013-05-14 00:12:00,
2013-05-13 19:22:00,66.0,34.0,30.00,SW,223,0.0,-999.0,31,-99.99,,,-99.99,,2013-05-14 00:22:00,
2013-05-13 19:31:00,65.0,36.0,30.01,SW,223,0.0,-999.0,34,-99.99,,,-99.99,,2013-05-14 00:31:00,
2013-05-13 19:41:00,65.0,36.0,30.01,SW,223,0.0,-999.0,34,-99.99,,,-99.99,,2013-05-14 00:41:00,
2013-05-13 19:52:00,65.0,36.0,30.00,South,184,0.0,-999.0,34,-99.99,,,-99.99,,2013-05-14 00:52:00,
2013-05-13 20:01:00,65.0,36.0,30.00,SSE,167,0.0,-999.0,34,-99.99,,,-99.99,,2013-05-14 01:01:00,
2013-05-13 20:11:00,65.0,36.0,30.00,SSE,167,0.0,-999.0,34,-99.99,,,-99.99,,2013-05-14 01:11:00,
2013-05-13 20:21:00,64.0,38.0,30.00,SSE,167,0.0,-999.0,38,-99.99,,,-99.99,,2013-05-14 01:21:00,
2013-05-13 20:31:00,62.0,37.0,29.99,SSE,167,0.0,-999.0,39,-99.99,,,-99.99,,2013-05-14 01:31:00,
2013-05-13 20:43:00,62.0,37.0,29.99,SSE,167,0.0,-999.0,39,-99.99,,,-99.99,,2013-05-14 01:43:00,
2013-05-13 20:53:00,62.0,39.0,29.99,SSE,167,0.0,-999.0,42,-99.99,,,-99.99,,2013-05-14 01:53:00,
2013-05-13 21:02:00,61.0,39.0,29.99,SE,134,0.0,-999.0,44,-99.99,,,-99.99,,2013-05-14 02:02:00,
2013-05-13 21:11:00,60.0,40.0,30.00,SE,132,0.0,-999.0,47,-99.99,,,-99.99,,2013-05-14 02:11:00,
2013-05-13 21:22:00,60.0,40.0,30.00,SE,132,0.0,-999.0,47,-99.99,,,-99.99,,2013-05-14 02:22:00,
2013-05-13 21:32:00,60.0,40.0,30.00,SE,126,0.0,-999.0,48,-99.99,,,-99.99,,2013-05-14 02:32:00,
2013-05-13 21:42:00,60.0,40.0,30.00,SE,126,0.0,-999.0,48,-99.99,,,-99.99,,2013-05-14 02:42:00,
2013-05-13 21:52:00,60.0,41.0,30.01,SE,126,0.0,-999.0,49,-99.99,,,-99.99,,2013-05-14 02:52:00,
2013-05-13 22:01:00,60.0,40.0,30.01,SE,124,0.0,-999.0,48,-99.99,,,-99.99,,2013-05-14 03:01:00,
2013-05-13 22:11:00,60.0,40.0,30.01,SE,124,0.0,-999.0,48,-99.99,,,-99.99,,2013-05-14 03:11:00,
2013-05-13 22:21:00,59.0,40.0,30.01,SE,124,0.0,-999.0,49,-99.99,,,-99.99,,2013-05-14 03:21:00,
2013-05-13 22:33:00,59.0,40.0,30.01,SE,137,0.0,-999.0,50,-99.99,,,-99.99,,2013-05-14 03:33:00,
2013-05-13 22:42:00,59.0,40.0,30.01,SE,137,0.0,-999.0,50,-99.99,,,-99.99,,2013-05-14 03:42:00,
2013-05-13 22:53:00,59.0,41.0,30.00,SE,137,0.0,-999.0,52,-99.99,,,-99.99,,2013-05-14 03:53:00,
2013-05-13 23:02:00,59.0,42.0,29.99,SE,137,0.0,-999.0,53,-99.99,,,-99.99,,2013-05-14 04:02:00,
2013-05-13 23:13:00,59.0,42.0,29.99,SE,137,0.0,-999.0,53,-99.99,,,-99.99,,2013-05-14 04:13:00,
2013-05-13 23:23:00,58.0,41.0,29.99,SE,137,0.0,-999.0,54,-99.99,,,-99.99,,2013-05-14 04:23:00,
2013-05-13 23:32:00,58.0,41.0,29.98,SE,126,0.0,-999.0,53,-99.99,,,-99.99,,2013-05-14 04:32:00,
2013-05-13 23:43:00,58.0,41.0,29.98,SE,126,0.0,-999.0,53,-99.99,,,-99.99,,2013-05-14 04:43:00,
2013-05-13 23:53:00,58.0,41.0,29.97,ESE,114,0.0,-999.0,53,-99.99,,,-99.99,,2013-05-14 04:53:00,